Regional Weather Roundup
Issued by NWS Upton, NY

Current Version | Previous Version | Text Only | Print | Product List | Glossary On
Versions: 1 2 3 4 5 6 7 8 9 10 11 12 13 14 15 16 17 18 19 20 21 22 23 24 25 26 27
000
ASUS41 KOKX 230208
RWROKX

REGIONAL WEATHER ROUNDUP
NATIONAL WEATHER SERVICE NEW YORK NY
1000 PM EDT TUE AUG 22 2017

NOTE: "FAIR" INDICATES FEW OR NO CLOUDS BELOW 12,000 FEET WITH NO
SIGNIFICANT WEATHER AND/OR OBSTRUCTIONS TO VISIBILITY.

NYZ071-072-176-178-NJZ106-104-230300-
NEW YORK CITY METRO AREA

CITY           SKY/WX    TMP DP  RH WIND       PRES   REMARKS
Central Park   PTCLDY    83  71  67 SW8       29.78F
Bronx Bot Gard   N/A     82  70  65 SE10      29.75F
LaGuardia APRT MOCLDY    84  73  69 SW14G26   29.75F HX  90
Kennedy INTL   MOCLDY    78  75  90 S16       29.78F
Breezy Point     N/A     77 N/A N/A S13         N/A
Newark/Liberty MOCLDY    83  70  64 S13G23    29.75F
Teterboro      PTCLDY    85  70  60 S14G22    29.73F
$$

NYZ177-179-078>081-230300-
LONG ISLAND NEW YORK

CITY           SKY/WX    TMP DP  RH WIND       PRES   REMARKS
Jones Beach      N/A     75 N/A N/A SW8G21      N/A
Matinecock PT    N/A     81 N/A N/A SW14G22     N/A
Farmingdale    CLEAR     77  74  90 SW20G26   29.79F
MacArthur/ISP  MOCLDY    77  75  93 S17G26    29.79F
Shirley        CLOUDY    77  75  93 S15G21    29.80F
Mt Sinai Harb    N/A    N/A N/A N/A S14G21      N/A
Westhampton    CLOUDY    75  72  90 SW15G21   29.82F
East Hampton   CLOUDY    73  71  95 SW14G21   29.79F
Montauk          N/A     74  73  97 SW12G25   29.81F
$$

NYZ052-065-067-230300-
HUDSON VALLEY

CITY           SKY/WX    TMP DP  RH WIND       PRES   REMARKS
White Plains   PTCLDY    80  73  79 VRB6      29.76F
Larchmont Harb   N/A     79 N/A N/A S18         N/A
Croton On Huds   N/A     84 N/A N/A S10G17      N/A
Newburgh       LGT RAIN  81  72  74 SW16      29.75F
Montgomery     TSTM      76  69  79 W6        29.74R
Poughkeepsie   TSTM      80  71  74 W8        29.71S
Albany         LGT RAIN  71  66  84 SW8       29.71F
$$

NJZ001-105-106-008-010-013-015-019>022-104-230300-
NEW JERSEY

CITY           SKY/WX    TMP DP  RH WIND       PRES   REMARKS
Newark/Liberty MOCLDY    83  70  64 S13G23    29.75F
Teterboro      PTCLDY    85  70  60 S14G22    29.73F
Caldwell       MOCLDY    84  73  69 VRB7      29.74F HX  90
Somerville     CLOUDY    83  72  69 S7        29.75S
Linden         FAIR      83  68  61 SW8       29.75F
Perth Amboy      N/A     81 N/A N/A S15G21      N/A
Sussex         RAIN      75  74  96 SW3       29.75R FOG
Andover          N/A     77  72  84 SW12      29.79R
Trenton        CLOUDY    83  72  69 SW9G22    29.78F
Millville      CLEAR     82  78  88 S8G17     29.81F HX  91
Atlantic City  MOCLDY    79  76  90 S17G24    29.82F
Wrightstown    CLOUDY    79  72  79 SW9       29.76F
Toms River     CLOUDY    77  74  90 S10       29.80F
Belmar         CLOUDY    79  74  84 S12G21    29.80F
$$

PAZ047>061-062-071-230300-
EASTERN PENNSYLVANIA

CITY           SKY/WX    TMP DP  RH WIND       PRES   REMARKS
Philadelphia   MOCLDY    83  72  69 S13       29.78F
Allentown      CLOUDY    73  68  84 SW10      29.80F
Scranton       CLOUDY    73  71  93 SW5       29.78F THUNDER
$$

CTZ002-004>006-009-010-012-RIZ004-006-007-MAZ004-011-015-230300-
SOUTHERN NEW ENGLAND
 IN CT

CITY           SKY/WX    TMP DP  RH WIND       PRES   REMARKS
Bradley INTL   CLOUDY    80  73  79 S14       29.72F
Hartford       PTCLDY    80  74  81 S13G21    29.72F
Danbury        CLOUDY    81  73  76 S15G21    29.77S
Wtrbury/Oxford PTCLDY    76  73  91 S8G17     29.79S
Norwalk Harbor   N/A     77 N/A N/A S15         N/A
Bridgeport     PTCLDY    78  72  81 S17       29.76S
Meriden        CLEAR     77  72  84 S12       29.75F
New Haven      CLEAR     78  72  81 S10G22    29.77S
Chester        FAIR      75  73  94 S13G18    29.78F
Groton         CLOUDY    74  71  91 SW12      29.78F
Wilimantic     PTCLDY    77  73  87 SW10      29.76F

 IN RI

CITY           SKY/WX    TMP DP  RH WIND       PRES   REMARKS
Providence     MOCLDY    76  72  87 SW15      29.78F
Block Island   CLOUDY    73  71  93 SW18G25   29.80F
Westerly       CLOUDY    75  72  90 SW9G20    29.80F
 IN MA

CITY           SKY/WX    TMP DP  RH WIND       PRES   REMARKS
Boston         CLOUDY    76  71  85 S16       29.72F
Worcester      MOCLDY    75  70  84 SW15G25   29.74F
Westfield      CLOUDY    79  74  84 S15G21    29.70F
Provincetown   CLEAR     73  69  87 SW15      29.79F
Nantucket        N/A     70  70 100 S18       29.85F FOG
$$

ANZ330-335-338-340-345-350-353-355-230300-
COASTAL MARINE OBSERVATIONS


STATION/POSITION TIME  SKY/WX   TEMP    WIND        PRES    VSBY  WAVE
                                AIR SEA DIR/SP/G                  HT/PER
                 (UTC)          (F)     (DEG/KT/KT) (MB)    (MI)  (FT/S)
NY HARB ENTRANCE 0050            77 75  200/ 23/ 27 1008.0          6/ 6
GREAT SOUTH BAY  0130            77 79  210/ 19/ 23   N/A
23 SSW MONTAUK P 0050            75 73              1009.9          6/ 6
15 E BARNEGAT LI 0130               77                N/A           7/ 6
HUDSON CANYON    0050            77 76  200/ 19/ 23 1010.9          5/ 6
KINGS POINT      0130            80 76  220/ 15/ 21 1007.8
EXECUTION ROCKS  NOT AVBL
WESTERN LI SOUND NOT AVBL
CENTRAL LI SOUND NOT AVBL
EASTERN LI SOUND NOT AVBL
ROBBINS REEF     0124                   200/ 15/ 23 1008.5
$$


>>>>>>>>>>>>>>>>>>>>>>>>>>>> KEY <<<<<<<<<<<<<<<<<<<<<<<<<<<
>                                                          <
>     SKY/WX - Sky Condition/Present Weather               <
>     TMP    - Temperature in Fahrenheit                   <
>     DP     - Dew Point in Fahrenheit                     <
>     RH     - Relative Humidity in Percent                <
>     WIND   - Direction (from) and Speed in MPH           <
>     PRES   - Mean Sea Level Pressure (inches of Hg)      <
>     WCI    - Wind Chill Index                            <
>     VSB    - VISIBILITY IN MILES                         <
>     HX     - HEAT INDEX                                  <
>     TC     - TEMPERATURE IN CELSIUS                      <
>     VRB    - VARIABLE WIND DIRECTION                     <
>                                                          <
>>>>>>>>>>>>>>>>>>>>>>>>>>>> KEY <<<<<<<<<<<<<<<<<<<<<<<<<<<




USA.gov is the U.S. government's official web portal to all federal, state and local government web resources and services.